Seward, AK

6:13 AM AKDT on September 19, 2017 (GMT -0800)
Seward

Weather History for PAWD - November, 2014

Change the Weather History Date:

Wednesday, November 26, 2014

  Actual Average Record
Temperature  
Mean Temperature 33 °F -  
Max Temperature 36 °F 34 °F 47 °F (1982)
Min Temperature 28 °F 26 °F 4 °F (1963)
Degree Days  
Heating Degree Days 32    
Moisture  
Dew Point 25 °F    
Average Humidity 74    
Maximum Humidity 82    
Minimum Humidity 67    
Precipitation  
Precipitation 0.00 in - - ()
Sea Level Pressure  
Sea Level Pressure 30.25 in    
Wind  
Wind Speed 15 mph (NNE)    
Max Wind Speed 22 mph    
Max Gust Speed 34 mph    
Visibility 10 miles    
Events      
Averages and records for this station are not official NWS values.
T = Trace of Precipitation, MM = Missing Value Source: NWS Daily Summary

Daily Weather History Graph

Daily Weather History Graph

Search for Another Location

Airport or City:

Trip Planner

Search our weather history database for the weather conditions in past years. The results will help you decide how hot, cold, wet, or windy it might be!

Date:

Astronomy

Nov. 26, 2014 Rise Set
Actual Time 9:23 AM AKST 4:06 PM AKST
Civil Twilight 8:30 AM AKST 4:59 PM AKST
Nautical Twilight 7:36 AM AKST 5:53 PM AKST
Astronomical Twilight 6:45 AM AKST 6:43 PM AKST
Moon 12:36 PM AKST (11/26) 9:20 PM AKST (11/26)
Length of Visible Light 8h 28m
Length of Day
6h 42m
Waxing Crescent, 22% of the Moon is Illuminated
Nov 26
Waxing Crescent
Nov 29
First Quarter
Dec 6
Full
Dec 14
Last Quarter
Dec 21
New

Hourly Weather History & Observations

Time (AKST) Temp. Windchill Dew Point Humidity Pressure Visibility Wind Dir Wind Speed Gust Speed Precip Events Conditions
12:53 AM 30.0 °F 20.0 °F 25.0 °F 82% 30.30 in 10.0 mi NNE 12.7 mph - N/A   Clear
1:53 AM 30.9 °F 22.2 °F 25.0 °F 79% 30.30 in 10.0 mi NNE 10.4 mph - N/A   Clear
2:53 AM 32.0 °F 21.6 °F 25.0 °F 75% 30.30 in 10.0 mi North 15.0 mph - N/A   Clear
3:53 AM 33.1 °F 23.4 °F 25.0 °F 72% 30.29 in 10.0 mi North 13.8 mph 20.7 mph N/A   Clear
4:53 AM 32.0 °F 22.5 °F 25.0 °F 75% 30.28 in 10.0 mi North 12.7 mph - N/A   Clear
5:53 AM 32.0 °F 20.5 °F 25.0 °F 75% 30.27 in 10.0 mi NNE 18.4 mph 25.3 mph N/A   Clear
6:53 AM 30.9 °F 19.8 °F 26.1 °F 82% 30.27 in 10.0 mi NNE 16.1 mph - N/A   Clear
7:53 AM 32.0 °F 22.1 °F 27.0 °F 82% 30.27 in 10.0 mi NNE 13.8 mph 24.2 mph N/A   Partly Cloudy
8:53 AM 33.1 °F 24.4 °F 27.0 °F 78% 30.27 in 10.0 mi NNE 11.5 mph 26.5 mph N/A   Clear
9:53 AM 33.1 °F 21.9 °F 27.0 °F 78% 30.27 in 10.0 mi NNE 18.4 mph 24.2 mph N/A   Clear
10:53 AM 33.1 °F 23.0 °F 27.0 °F 78% 30.27 in 10.0 mi North 15.0 mph 20.7 mph N/A   Clear
11:53 AM 34.0 °F 23.8 °F 27.0 °F 75% 30.27 in 10.0 mi NNE 16.1 mph 23.0 mph N/A   Clear
12:53 PM 36.0 °F 26.7 °F 27.0 °F 70% 30.26 in 10.0 mi North 15.0 mph 23.0 mph N/A   Clear
1:53 PM 36.0 °F 26.7 °F 26.1 °F 67% 30.25 in 10.0 mi North 15.0 mph 24.2 mph N/A   Clear
2:53 PM 35.1 °F 24.8 °F 25.0 °F 67% 30.24 in 10.0 mi North 17.3 mph 27.6 mph N/A   Clear
3:53 PM 34.0 °F 24.2 °F 26.1 °F 73% 30.24 in 10.0 mi NNE 15.0 mph 32.2 mph N/A   Clear
4:53 PM 34.0 °F 22.4 °F 25.0 °F 70% 30.23 in 10.0 mi North 20.7 mph - N/A   Clear
5:53 PM 34.0 °F 23.0 °F 25.0 °F 70% 30.23 in 10.0 mi North 18.4 mph 34.5 mph N/A   Clear
6:53 PM 32.0 °F 19.5 °F 24.1 °F 73% 30.22 in 10.0 mi North 21.9 mph 29.9 mph N/A   Clear
7:53 PM 33.1 °F 21.9 °F 24.1 °F 70% 30.22 in 10.0 mi North 18.4 mph 27.6 mph N/A   Clear
8:53 PM 32.0 °F 20.5 °F 23.0 °F 69% 30.21 in 10.0 mi NNE 18.4 mph 32.2 mph N/A   Clear
9:53 PM 32.0 °F 19.8 °F 23.0 °F 69% 30.21 in 10.0 mi NNE 20.7 mph 32.2 mph N/A   Clear
10:53 PM 30.9 °F 20.2 °F 21.9 °F 69% 30.22 in 10.0 mi North 15.0 mph 24.2 mph N/A   Clear
11:53 PM 28.9 °F 19.2 °F 21.9 °F 75% 30.22 in 10.0 mi NNE 11.5 mph 23.0 mph N/A   Clear